Regional Weather Roundup
Issued by NWS

Home | Current Version | Previous Version | Graphics & Text | Print | Product List | Glossary On
Versions: 1 2 3 4 5 6 7 8 9 10 11 12 13 14 15 16 17 18 19 20 21 22 23 24 25 26 27 28 29 30 31 32 33 34 35 36 37 38 39 40 41 42 43 44 45 46 47 48 49 50
398
ASUS43 KLSX 111957
RWRMO

WEATHER SUMMARY FOR MISSOURI
NATIONAL WEATHER SERVICE SPRINGFIELD MO
200 PM CST MON DEC 11 2017

NOTE: "FAIR" INDICATES FEW OR NO CLOUDS BELOW 12,000 FEET WITH NO
       SIGNIFICANT WEATHER AND/OR OBSTRUCTIONS TO VISIBILITY.
       CURRENT SKY AND/OR WEATHER CONDITIONS ARE NOT AVAILABLE FOR
       CHILLICOTHE AND FARMINGTON.

MOZ001>031-035>038-043-044-053-054-112100-
...NORTHERN AND WESTERN MISSOURI...

CITY           SKY/WX    TMP DP  RH WIND       PRES   REMARKS
KANSAS CTY INT MOSUNNY   55  27  34 NW25G37   29.97R
LEE`S SUMMIT   MOSUNNY   56  25  30 NW25G37   29.97R
ST JOSEPH      PTSUNNY   54  31  41 NW29G40   29.99R
CHILLICOTHE      N/A     51  29  42 NW18G35   29.92R

$$
MOZ066>068-077>081-088>096-101>105-112100-
...SOUTHWEST MISSOURI...

CITY           SKY/WX    TMP DP  RH WIND       PRES   REMARKS
SPRINGFIELD    SUNNY     60  19  20 NW21G29   29.94F
JOPLIN         CLOUDY    65  20  17 NW15      29.99F
BRANSON        MOSUNNY   64  18  16 W12G24    29.96S

$$
MOZ032>034-039>042-045>050-055>058-069>072-112100-
...CENTRAL MISSOURI...

CITY           SKY/WX    TMP DP  RH WIND       PRES   REMARKS
COLUMBIA       NOT AVBL
JEFFERSON CITY SUNNY     56  26  31 NW21G35   29.87F
ROLLA          PTSUNNY   53  22  29 W18G28    29.87F
SEDALIA        SUNNY     57  26  30 NW29G35   29.93R
WARRENSBURG    SUNNY     55  23  28 NW22G33   29.93S

$$
MOZ051-052-059>065-112100-
...EAST CENTRAL MISSOURI...

CITY           SKY/WX    TMP DP  RH WIND       PRES   REMARKS
ST LOUIS INTL  CLOUDY    56  22  26 W22G30    29.77S

$$
MOZ072>076-082>087-097>100-106>115-112100-
...SOUTH CENTRAL AND SOUTHEAST MISSOURI...

CITY           SKY/WX    TMP DP  RH WIND       PRES   REMARKS
CAPE GIRARDEAU SUNNY     59  35  40 S18G25    29.79F
POPLAR BLUFF   SUNNY     63  36  36 S17       29.81F
WEST PLAINS    PTSUNNY   66  14  13 W15G30    29.88F

$$



USA.gov is the U.S. government's official web portal to all federal, state and local government web resources and services.